Lapse_Rate
4.9 4.9 5.0 4.8 4.8 4.8 4.8 4.7 4.7 4.7 4.9 4.9 5.1 5.2 5.2 5.3 5.6 5.7 5.5 5.6 5.6 5.9 6.0 6.0 5.9 5.7 5.7 6.2 5.7 5.9 6.1 6.2 6.3 6.4 6.0 5.4 5.3 5.2 5.4 6.1 5.6 5.7 6.3 6.1 5.8 5.6 6.1
4.8 4.7 4.8 4.8 4.8 4.8 4.8 4.9 4.9 4.8 4.8 4.8 5.0 5.2 5.3 5.5 5.6 5.6 5.7 5.6 5.6 5.8 6.1 5.8 5.9 5.8 5.9 5.7 5.2 5.7 6.1 6.1 5.8 5.6 5.7 5.3 4.3 4.5 4.4 4.8 4.8 5.6 5.5 5.8 5.7 5.7 5.8
4.7 4.6 4.8 4.8 4.7 4.8 4.9 4.8 4.7 4.9 5.0 5.0 5.0 5.0 5.1 5.1 5.2 5.2 6.0 5.8 5.7 5.7 5.8 5.7 5.8 5.6 5.7 5.3 5.1 5.0 4.7 5.0 5.2 5.2 5.0 4.7 4.2 4.4 4.0 4.1 4.4 4.7 4.3 4.5 5.0 5.8 5.4
4.7 4.7 4.7 4.7 4.8 4.9 4.9 4.9 5.0 5.0 5.0 4.8 4.7 4.8 4.8 4.7 5.0 5.2 5.8 6.0 6.0 5.9 5.6 5.7 5.6 5.2 5.0 4.5 4.4 4.0 3.7 3.5 3.4 3.2 3.4 3.2 3.0 3.6 4.3 4.2 3.9 4.4 4.0 3.7 6.5 4.5 4.9
4.7 4.8 4.7 4.8 4.8 4.8 4.8 4.8 4.7 4.6 4.7 4.7 4.9 4.9 4.8 4.5 4.7 5.1 5.4 5.8 5.6 5.1 5.0 4.8 4.1 3.8 3.7 2.8 2.4 2.0 1.6 2.1 2.5 2.8 3.0 3.1 3.3 3.7 4.0 4.1 3.9 4.1 3.9 3.8 3.9 4.7 4.5
4.7 4.8 4.8 4.8 4.7 4.8 4.7 4.5 4.4 4.5 4.5 4.4 4.6 4.6 4.6 4.6 4.8 5.0 5.2 5.1 5.2 4.8 4.2 4.0 3.9 3.4 2.2 2.2 2.0 2.0 1.9 2.0 2.4 2.4 3.6 4.5 4.4 4.3 4.3 4.6 4.9 4.7 5.3 4.6 4.2 4.6 5.2
4.7 4.7 4.8 4.7 4.8 4.7 4.4 4.4 4.2 4.3 4.3 4.5 4.2 4.3 4.6 4.6 4.8 4.8 4.9 5.1 5.0 4.1 4.0 2.7 1.1 0.4 0.8 1.6 1.8 2.1 2.6 3.2 3.5 3.8 4.2 4.8 5.1 5.0 5.3 5.3 5.6 5.8 6.0 5.6 5.6 6.0 5.7
4.6 4.6 4.6 4.8 4.7 4.5 4.5 4.4 4.2 4.2 4.1 4.2 4.2 4.3 4.6 4.9 5.0 4.8 4.5 4.0 3.7 2.9 2.7 0.9 0.9 1.2 1.2 1.7 2.4 2.9 3.5 4.4 4.7 4.8 5.3 5.3 4.6 5.6 5.6 5.6 5.6 5.5 5.8 5.5 5.3 5.3 6.0
4.5 4.6 4.7 4.6 4.5 4.4 4.3 4.2 4.1 4.1 4.1 4.3 4.3 4.4 4.6 5.2 5.0 4.4 4.0 3.5 2.8 1.9 2.0 1.4 1.2 1.8 2.9 2.9 4.0 5.0 5.1 5.5 5.9 6.2 6.0 6.2 6.3 6.2 6.6 6.4 6.1 6.0 5.8 5.4 6.1 6.0 6.5
4.5 4.5 4.5 4.4 4.3 4.3 4.2 4.1 3.9 4.0 4.1 4.3 4.4 4.7 4.8 4.7 4.2 3.9 3.2 2.5 2.3 1.3 1.4 1.9 2.7 3.7 4.2 4.8 5.8 6.3 6.8 7.2 7.5 7.6 7.7 7.6 7.7 7.2 6.9 6.8 6.6 5.9 6.6 6.5 5.7 6.0 6.5
4.5 4.5 4.4 4.2 4.2 4.0 3.9 4.0 4.0 4.2 4.0 4.3 4.6 4.5 4.4 3.9 3.4 2.9 2.5 2.1 2.1 1.4 0.6 2.2 3.4 4.3 5.6 6.5 7.4 7.7 8.0 8.2 8.4 8.5 8.3 8.0 8.3 7.7 7.5 7.5 7.5 7.5 7.1 6.8 6.6 5.8 5.9
4.5 4.4 4.2 4.2 4.0 3.9 3.8 3.8 4.2 4.4 4.3 4.5 4.6 4.4 4.2 3.6 2.7 2.5 2.1 1.8 1.3 1.4 -0.3 2.8 4.0 5.4 6.4 7.0 8.0 8.5 8.7 8.7 8.6 8.5 8.6 8.6 8.5 7.9 7.3 7.7 7.6 8.0 7.7 7.3 6.9 6.6 6.1
4.3 4.2 4.0 4.0 4.0 3.8 4.0 4.0 4.3 4.3 4.5 4.5 4.5 4.0 3.6 2.4 2.7 1.9 1.6 1.6 2.0 1.2 2.2 3.4 4.2 5.9 7.4 8.0 8.6 8.7 8.8 8.8 8.5 8.4 8.3 7.9 8.2 7.9 7.5 6.9 7.7 7.5 6.9 7.8 7.8 7.5 7.1
4.3 4.0 3.8 3.7 3.8 3.8 3.9 4.1 4.2 4.3 4.4 4.2 3.9 3.7 2.8 2.5 1.7 1.5 1.5 1.7 1.4 1.7 2.9 4.2 5.7 7.0 8.1 8.5 8.5 8.7 8.8 8.6 8.6 8.4 8.3 7.6 7.5 7.7 7.5 6.7 6.6 6.8 6.4 7.0 6.2 7.2 7.7
4.1 3.8 3.7 3.7 3.8 3.8 3.8 4.1 4.3 4.2 4.2 3.7 3.3 3.1 2.8 2.0 1.4 1.4 1.5 1.1 1.6 2.4 3.9 5.3 6.5 7.5 8.1 8.6 8.6 8.5 8.7 8.7 8.5 8.3 8.2 7.8 7.4 7.4 7.2 6.2 6.2 7.0 6.8 7.2 6.6 7.9 7.8
4.0 3.8 3.8 3.7 3.7 3.8 3.8 4.0 4.1 4.0 3.8 3.5 3.4 2.9 2.3 1.7 1.4 1.5 1.8 1.6 2.5 3.4 4.8 6.1 7.2 7.9 8.4 8.4 8.4 8.5 8.6 8.5 8.5 8.4 8.3 8.1 6.7 7.0 6.7 6.3 6.3 5.7 6.1 6.6 7.0 7.3 7.0
3.9 3.8 3.9 3.8 3.7 3.7 3.8 3.9 3.9 3.7 3.4 3.4 3.2 2.8 1.8 2.0 1.5 1.6 1.2 1.9 3.2 4.6 5.4 6.5 7.1 7.5 8.1 8.1 8.3 8.4 8.5 8.6 8.6 8.3 8.1 7.8 6.8 6.2 6.1 5.5 5.4 5.4 5.2 5.2 5.8 7.8 6.6
3.8 3.8 4.0 3.9 3.7 3.7 3.9 3.8 3.5 3.4 3.3 3.4 3.0 2.6 1.9 1.4 2.0 1.5 2.0 2.7 4.2 5.3 5.9 6.6 7.0 7.2 7.5 8.1 8.0 8.2 8.1 8.2 8.1 7.7 7.1 7.2 6.3 5.9 5.9 5.9 5.5 5.2 4.9 4.7 4.9 5.7 5.9
3.4 3.7 3.8 3.8 3.7 3.8 3.8 3.7 3.5 3.3 3.0 3.1 2.6 2.5 1.9 1.3 1.3 1.6 2.8 3.8 4.8 5.6 6.0 6.4 6.9 7.1 7.5 7.9 7.8 7.7 7.7 7.6 7.5 7.4 6.6 6.8 6.0 5.6 6.0 6.1 5.6 4.5 4.8 4.6 4.6 4.8 5.4
3.4 3.8 3.8 3.5 3.6 3.7 3.7 3.6 3.4 3.4 3.0 2.9 2.6 2.4 2.0 1.7 1.7 2.1 2.8 4.1 4.9 5.8 6.1 6.3 6.8 7.0 7.1 7.6 7.9 7.5 7.2 7.6 7.4 7.4 6.9 6.1 5.3 5.6 5.7 5.2 4.9 4.7 4.9 5.2 5.2 5.3 6.3
3.2 3.6 3.6 3.3 3.3 3.5 3.7 3.7 3.4 3.4 2.9 2.7 2.4 2.0 2.1 1.8 1.9 2.6 3.3 4.6 5.4 5.4 5.9 6.0 6.6 6.9 7.0 7.1 7.0 7.2 7.7 7.9 7.7 7.4 6.8 5.6 5.4 5.8 6.0 5.3 5.0 5.0 5.1 4.9 4.4 5.4 5.6
3.3 3.5 3.6 3.5 3.5 3.6 3.7 3.5 3.1 3.2 2.9 2.7 2.3 1.9 2.0 2.2 2.2 2.7 3.6 4.7 5.4 5.6 5.4 5.9 6.1 6.9 7.2 7.3 7.2 7.2 7.3 7.6 7.4 7.3 6.3 5.6 5.4 5.7 6.4 6.0 5.8 5.1 4.7 4.3 4.6 4.0 4.6
3.7 3.7 3.6 3.6 3.6 3.6 3.7 3.3 3.2 2.9 2.8 2.6 2.2 1.9 1.8 2.2 2.4 2.9 3.9 4.8 5.1 5.3 5.8 6.0 6.2 6.7 7.2 7.4 7.5 8.0 7.9 7.7 7.3 6.8 6.0 5.4 5.3 5.5 5.5 5.8 6.2 5.5 4.4 4.5 4.3 3.7 3.7
4.0 3.8 3.7 3.6 3.7 3.5 3.6 3.3 3.1 2.8 2.8 2.5 2.2 2.0 2.0 2.6 2.8 3.1 4.0 5.1 5.3 5.3 5.5 6.0 6.3 6.7 7.1 7.5 8.1 8.4 8.2 7.9 7.2 6.8 5.9 5.4 5.4 5.6 5.6 5.7 5.2 5.3 4.6 4.0 3.8 4.0 4.1
4.1 3.9 3.7 3.7 3.7 3.5 3.4 3.3 3.1 2.9 2.8 2.6 2.4 2.3 2.1 2.8 3.0 3.6 4.4 5.4 5.6 5.4 5.7 5.9 6.4 6.4 7.0 7.3 7.7 7.9 8.0 7.8 7.4 7.1 6.3 5.5 5.5 5.6 5.4 5.2 5.7 5.2 5.3 4.8 4.4 4.3 4.1
4.1 3.9 3.7 3.7 3.6 3.6 3.5 3.5 3.1 2.9 2.8 2.6 2.5 2.4 2.6 2.7 3.2 3.7 4.8 5.4 5.7 5.9 6.2 6.4 6.6 6.7 6.9 7.2 7.2 7.0 7.1 7.2 7.0 7.0 6.5 6.0 5.8 5.6 5.4 5.5 5.4 4.5 4.8 4.8 4.9 5.2 5.0
4.1 4.0 3.8 3.6 3.7 3.7 3.6 3.5 3.1 3.0 2.8 2.7 2.6 2.5 2.7 3.1 3.3 4.0 4.7 5.5 5.7 5.7 5.7 6.1 6.6 6.8 6.9 6.9 6.9 6.8 6.9 7.0 7.1 6.6 6.4 6.3 5.8 5.4 5.5 5.4 4.9 4.5 4.8 5.1 4.3 4.0 4.9
4.1 3.8 3.7 3.5 3.8 3.8 3.6 3.4 3.1 3.0 2.9 2.8 2.6 2.7 2.7 3.3 3.7 4.1 4.8 5.4 5.4 5.5 5.4 5.6 6.0 6.2 6.5 6.4 6.4 6.5 6.6 6.8 6.9 6.7 6.5 6.2 5.5 5.1 5.1 5.0 4.8 4.5 4.6 3.9 3.5 4.3 4.4
4.2 3.8 3.6 3.6 3.8 3.7 3.6 3.3 3.1 2.9 2.9 2.9 2.6 2.6 2.9 3.2 3.7 4.4 4.9 5.4 5.5 5.5 5.5 5.6 5.6 5.6 5.6 5.8 6.1 6.3 6.4 6.7 6.8 6.7 6.6 6.4 5.6 5.0 4.8 4.7 4.7 4.2 4.2 4.1 4.1 4.4 4.6
Wind_Speed
11 12 12 13 14 15 16 16 19 18 18 20 24 24 25 27 28 28 30 30 32 30 28 25 23 19 7 1 8 11 27 23 13 11 6 6 10 15 19 7 17 24 21 12 19 17 10
10 12 13 13 14 14 14 17 18 18 21 23 24 25 27 28 30 31 32 34 33 33 30 27 20 7 2 5 4 13 19 10 11 6 8 7 12 8 13 16 19 3 24 25 20 15 20
9 11 11 12 12 12 15 17 18 20 22 23 24 25 27 29 32 34 35 33 35 34 29 15 5 5 5 10 6 15 14 7 4 8 6 10 9 10 11 15 24 24 28 18 20 28 15
10 10 12 13 15 15 17 17 20 22 23 24 25 26 28 30 31 33 34 35 36 31 14 15 13 3 4 3 11 16 14 7 13 8 6 8 8 11 9 13 17 13 16 27 37 16 19
10 10 11 13 13 14 14 18 20 20 23 25 27 28 29 31 32 33 30 31 23 17 27 9 7 2 4 6 13 15 8 8 8 8 9 11 7 7 11 11 9 15 22 24 24 14 10
8 10 10 11 14 16 17 17 18 22 23 25 28 30 31 32 33 30 27 23 25 9 18 4 7 4 8 7 9 14 7 7 3 7 7 6 4 9 13 12 21 13 16 26 23 12 18
9 9 12 13 14 15 16 17 20 21 23 25 27 28 31 34 33 24 18 4 7 8 11 3 12 3 12 8 9 10 7 7 5 3 5 4 5 9 16 16 24 28 31 20 25 12 19
8 11 12 12 14 15 17 19 21 22 25 27 28 29 31 30 27 17 7 6 6 6 7 7 12 8 9 7 5 12 10 8 6 12 11 8 11 13 14 20 20 18 19 30 25 19 15
8 9 11 12 12 15 16 19 21 23 25 27 29 30 31 28 18 6 2 4 5 4 2 7 5 4 6 6 3 9 7 5 4 7 10 9 16 20 21 15 10 15 14 14 16 14 10
9 9 10 11 13 15 17 18 21 24 26 28 30 31 30 24 5 5 4 9 12 0 2 2 8 4 8 7 7 7 5 2 5 3 7 7 7 20 19 22 18 16 12 17 17 13 14
7 8 9 10 13 14 17 21 22 24 27 29 32 32 26 17 3 4 6 15 11 3 4 10 5 6 13 5 8 6 4 5 5 6 2 10 18 21 19 18 18 15 20 15 17 15 15
6 7 9 10 11 14 17 19 21 25 28 31 33 30 22 9 3 6 17 11 3 5 3 5 9 15 14 7 16 6 8 3 3 6 10 15 12 4 6 11 25 18 13 17 15 9 12
5 6 7 9 12 14 16 18 20 23 27 31 33 27 9 3 4 19 13 3 4 6 9 11 16 16 15 9 13 8 12 8 1 8 11 16 10 5 6 19 13 7 4 3 7 8 10
4 6 9 11 13 14 15 18 19 24 27 31 33 18 8 3 14 16 4 5 9 11 5 16 12 16 8 9 9 10 12 6 4 2 11 6 24 12 16 7 8 21 7 4 4 7 11
3 7 9 10 12 13 14 17 21 22 26 30 24 5 4 7 17 5 5 6 1 5 8 11 14 6 6 14 3 6 4 3 5 2 5 7 16 25 13 14 7 4 5 4 6 3 7
6 7 9 10 11 12 15 18 19 21 25 28 1 4 4 19 10 5 5 6 2 3 9 9 3 4 6 6 7 5 3 5 6 4 3 6 17 8 14 12 2 9 8 4 6 7 4
5 6 7 8 11 13 14 16 19 21 24 24 3 3 4 20 4 5 3 2 3 6 7 4 9 6 5 5 5 4 5 11 3 7 8 3 3 18 10 7 15 6 4 5 6 3 4
4 5 7 9 10 12 14 17 18 20 20 8 2 2 4 6 5 2 2 5 7 6 4 5 4 4 3 12 5 7 7 6 11 3 12 5 4 6 21 15 6 9 4 2 5 8 4
4 6 8 9 11 12 13 15 18 19 18 2 1 2 3 5 3 3 5 3 4 5 8 4 4 3 3 5 6 11 9 10 11 15 5 5 3 11 14 4 2 7 14 14 9 5 6
3 5 6 8 10 12 12 15 16 16 19 4 2 3 4 3 1 4 3 5 5 2 7 4 5 5 11 12 10 9 10 15 18 15 17 9 1 2 8 12 15 17 26 22 4 2 7
2 3 6 8 10 11 13 13 14 16 15 3 3 2 3 3 3 3 4 2 6 6 3 3 3 10 10 7 12 7 22 23 18 11 6 1 3 9 14 15 10 10 14 24 22 16 6
2 3 6 7 9 11 11 12 14 14 8 3 2 2 2 3 3 3 4 4 2 6 2 5 7 14 12 4 9 18 19 17 7 7 7 3 3 11 4 4 13 2 21 13 24 21 13
1 3 5 6 8 9 11 11 12 13 5 1 0 2 2 3 2 2 2 3 11 14 5 5 8 7 11 11 16 21 15 11 11 5 4 3 5 6 5 15 13 2 20 14 7 19 16
2 2 4 6 7 9 10 11 12 11 5 2 2 1 2 4 2 4 7 5 8 10 6 9 5 1 6 16 13 6 6 4 0 3 3 6 9 4 5 12 4 3 13 7 4 20 20
2 3 5 7 8 8 10 11 12 11 10 2 2 1 1 4 2 9 6 4 8 8 4 4 4 4 7 6 5 6 5 6 4 5 8 6 3 4 4 5 3 9 26 16 7 5 24
2 4 6 7 7 9 9 10 11 11 12 3 2 2 1 2 4 2 3 3 2 3 5 4 6 6 4 3 3 3 3 5 6 11 7 10 2 2 3 4 6 9 25 24 6 2 28
3 5 5 7 8 9 9 10 12 12 12 3 2 4 1 2 4 3 1 3 2 2 2 4 6 6 4 3 2 1 3 2 4 7 7 6 5 6 8 3 3 15 21 19 9 9 24
4 6 6 7 8 9 10 11 12 11 12 4 3 1 3 2 5 4 3 1 3 1 1 4 4 4 3 4 1 2 1 3 3 4 5 4 6 4 5 5 5 21 7 8 7 11 16
4 5 7 8 9 9 10 13 12 12 11 4 0 1 1 2 5 2 5 6 6 6 3 2 4 2 3 1 1 2 2 1 2 3 4 4 1 3 3 3 5 14 2 8 11 13 12
Wind_Direction
50 45 32 27 20 17 19 10 5 2 3 354 355 352 350 346 342 338 335 330 325 321 318 319 314 307 322 356 254 326 346 344 352 4 310 220 218 219 230 211 223 233 232 220 230 244 248
40 37 30 19 21 14 16 3 4 1 357 356 353 351 349 343 340 337 334 329 324 320 319 314 305 328 195 270 263 336 336 323 347 16 335 326 255 237 279 260 238 265 237 243 246 237 238
37 37 21 18 2 8 7 5 3 359 355 354 355 351 348 345 342 338 334 328 321 321 319 326 347 286 204 259 315 327 343 325 316 320 305 309 298 293 330 245 248 256 262 263 244 234 224
36 21 20 13 19 13 7 7 2 357 355 354 353 351 347 344 341 336 335 328 325 329 334 306 287 295 251 239 13 353 332 321 328 316 301 247 275 276 212 308 295 269 241 247 247 231 230
33 17 16 15 19 17 9 3 0 356 357 355 352 348 345 341 339 338 337 328 335 7 342 355 70 221 322 29 353 323 320 310 303 338 299 282 260 245 261 249 275 237 253 242 266 231 207
32 19 12 19 23 11 7 4 358 1 356 355 352 347 345 342 340 341 344 333 332 28 348 49 54 49 10 309 311 311 298 307 331 322 327 23 305 251 242 240 251 254 240 247 258 243 219
25 22 31 20 11 9 7 4 3 359 359 355 351 348 344 341 341 349 355 12 14 355 9 294 287 249 268 271 309 335 331 335 337 24 335 298 267 250 262 249 249 252 261 260 254 245 243
28 18 16 16 13 10 8 6 2 358 356 353 349 347 342 340 341 355 9 49 63 243 313 287 260 235 251 263 310 345 350 5 351 334 331 325 271 273 298 294 286 284 273 262 267 278 281
35 30 21 19 10 11 8 5 1 358 354 351 348 345 343 339 343 3 9 71 314 328 335 301 271 299 312 326 302 334 8 322 286 306 338 293 275 286 282 270 301 295 277 287 278 270 264
41 27 19 10 18 7 2 0 357 357 352 349 348 346 342 343 32 333 333 322 328 0 46 295 7 2 342 300 1 340 332 303 333 275 311 286 289 307 295 288 275 278 273 278 269 284 251
33 25 18 15 16 5 0 357 356 354 351 348 348 344 343 350 264 333 279 304 308 85 27 330 14 303 312 22 304 333 288 325 287 291 65 267 307 305 302 285 319 271 272 269 268 262 274
37 23 18 8 5 5 2 356 355 354 350 346 346 344 346 347 346 266 312 313 74 52 330 351 333 327 345 353 336 299 326 356 275 288 295 286 277 281 315 308 308 252 270 268 259 236 245
36 24 11 357 13 8 0 357 358 353 347 343 344 342 358 351 295 313 319 31 47 56 353 344 330 327 313 345 327 328 329 327 335 325 325 311 299 231 287 328 307 32 331 247 203 202 234
41 12 19 24 15 11 4 359 357 354 347 342 343 345 342 294 318 331 14 56 57 2 348 320 321 313 316 347 315 325 330 336 315 354 310 326 328 344 316 301 289 292 227 261 213 190 200
20 34 24 25 17 11 4 1 359 355 348 344 342 346 346 307 339 3 61 48 38 338 307 318 318 309 306 330 318 358 291 246 253 286 339 307 304 311 307 325 315 325 215 273 267 270 172
47 40 30 23 15 3 6 4 2 358 349 344 357 346 296 345 358 50 58 79 319 266 324 320 310 317 316 321 333 348 315 252 278 228 170 270 300 310 333 332 318 296 329 306 192 172 180
67 48 31 17 8 13 3 3 359 358 352 345 41 25 283 350 43 43 87 240 295 306 339 304 303 307 284 309 277 274 249 293 240 303 331 239 254 300 311 323 301 332 8 330 281 257 167
61 40 16 17 11 6 10 4 1 -0 358 27 27 45 323 16 35 33 40 311 299 299 325 301 293 214 224 319 290 294 288 267 311 267 310 247 275 299 305 307 259 333 4 339 340 342 304
54 25 16 8 4 16 14 5 2 3 4 71 57 289 328 64 52 339 311 289 244 307 326 307 286 281 281 300 308 291 296 305 305 320 284 294 347 325 333 355 279 318 317 302 263 231 251
51 27 9 8 6 9 19 8 2 8 -0 91 74 17 325 36 81 121 333 281 306 289 286 283 265 287 328 317 308 287 303 314 311 307 311 358 242 264 287 285 291 309 318 346 118 293 345
63 15 357 8 3 16 12 7 2 9 6 87 40 276 189 299 314 297 190 253 299 329 294 305 295 328 324 299 310 303 323 325 319 323 331 121 241 303 296 296 300 313 352 24 24 2 16
82 351 350 2 357 8 3 3 2 12 32 73 88 40 331 269 285 284 296 281 294 317 215 290 311 317 313 255 272 305 315 312 279 324 324 339 291 320 306 349 324 43 8 31 27 17 24
185 330 351 347 358 357 357 357 -0 4 54 115 225 286 161 260 278 78 265 305 305 308 277 262 293 314 311 307 313 293 284 267 253 287 293 324 328 327 297 315 311 337 8 358 32 26 18
245 342 333 337 351 352 350 350 351 354 29 159 217 200 251 270 190 263 312 290 299 305 272 287 306 229 278 313 307 296 289 282 269 347 262 310 324 317 298 321 41 115 3 344 1 35 20
258 313 324 334 352 341 345 347 346 344 334 178 159 197 306 288 252 294 338 278 315 303 275 264 281 265 311 324 359 340 339 354 321 332 331 351 315 315 339 321 290 332 353 342 318 64 18
257 299 319 334 337 334 342 344 334 329 331 97 223 151 182 303 266 199 258 218 256 292 326 272 317 313 352 6 38 2 324 313 334 329 333 352 32 35 319 337 23 358 332 333 282 311 8
262 293 315 323 325 328 335 332 326 330 333 109 255 187 213 224 277 109 274 233 264 15 254 309 321 338 11 17 8 299 309 327 355 336 335 339 343 14 348 340 78 355 341 326 38 314 331
269 293 316 317 320 324 325 323 322 331 329 113 264 312 136 221 273 233 227 144 324 110 246 277 13 347 -0 31 52 282 50 280 360 315 350 28 334 347 341 354 358 8 0 32 306 307 317
267 294 303 314 319 319 322 318 322 326 323 124 211 316 336 161 243 274 250 229 199 210 271 338 198 184 250 264 228 230 294 14 146 301 25 32 344 293 28 297 351 344 68 339 330 317 319